Voltar ao catálogo

ATLAS 5 CENTAUR DEB

LostHEO
NORAD 44985·DEBRIS·🇺🇸 United States

Lançado Oct 17, 2018 de Cape Canaveral Space Force Station

Loading…

Próximas Passagens (próximas 24 horas)

TLE

ObsoletoSource: Space-Track

Época: Jul 22, 2026, 05:43 UTC

1 44985U 18079BR  26203.23882821 -.00000096  00000-0  00000-0 0  9998
2 44985  13.6193 349.2788 4742939  51.2300 342.4577  1.96762190 37772

Acompanhe ATLAS 5 CENTAUR DEB em tempo real com AllMySat

Download on the App Store